sat.trackr.live / text

‹ back to catalog

SDA_1676

NORAD 65986 · 2025-230N

PAYLOAD ACTIVE UNKNOWN

§ Identity

Operator
Country
US
Launch date
2025-10-15
Launch site
AFWTR
Launch vehicle
Mass (kg)
RCS (m²)

External: N2YO · Heavens-Above · Gunter

§ Orbital elements

Epoch: 2026-09-20T21:02:10.699008Z

Period
104.49 min
Inclination
81.2999°
Eccentricity
0.0000670
Mean motion
13.78091528 rev/d
Perigee alt
970.2 km
Apogee alt
971.2 km
Semi-major
7,348.8 km
B*
2.5951e-5
RAAN
124.7641°
Arg perigee
44.0848°
Mean anomaly
316.0358°
Rev number
4,694

§ Raw data

SDA_16761 65986U 25230N   26263.87651272  .00000038  00000+0  25951-4 0  99992 65986  81.2999 124.7641 0000670  44.0848 316.0358 13.78091528 46943

JSON: /api/v1/satellites/65986 · /tle

For live sub-satellite position, see the globe view (requires WebGL).

§ Visibility from observer

Set your observer location to see the next 7 days of passes ≥ 10°. The values pass through the URL so the page stays shareable.

No JS? Fill the form by hand. The geolocation button needs JavaScript.